QPF
0.01 0.01 0.01 0.00 0.01 0.01 0.01 0.02 0.03 0.02 0.00 0.00 0.00 0.00 0.00 0.00 0.00 0.00 0.00 0.00 0.00 0.00 0.00 0.00 0.00 0.00 0.01 0.11 0.24 0.22 0.14 0.06 0.01 0.00 0.00 0.00 0.00 0.00
0.01 0.01 0.01 0.01 0.01 0.01 0.01 0.02 0.02 0.03 0.02 0.00 0.00 0.00 0.00 0.00 0.00 0.00 0.00 0.00 0.00 0.00 0.00 0.00 0.00 0.00 0.01 0.04 0.17 0.21 0.14 0.09 0.03 0.00 0.00 0.00 0.00 0.00
0.01 0.01 0.01 0.01 0.01 0.02 0.02 0.02 0.02 0.03 0.03 0.01 0.00 0.00 0.00 0.00 0.00 0.00 0.00 0.00 0.00 0.00 0.00 0.00 0.00 0.02 0.02 0.03 0.05 0.12 0.14 0.07 0.05 0.01 0.00 0.00 0.00 0.00
0.01 0.01 0.01 0.01 0.01 0.03 0.03 0.01 0.02 0.02 0.04 0.02 0.01 0.01 0.01 0.00 0.00 0.00 0.00 0.00 0.00 0.00 0.00 0.00 0.00 0.00 0.05 0.06 0.04 0.07 0.11 0.08 0.04 0.02 0.00 0.00 0.00 0.00
0.01 0.01 0.01 0.02 0.02 0.02 0.02 0.02 0.02 0.01 0.02 0.02 0.02 0.01 0.01 0.01 0.01 0.01 0.01 0.00 0.00 0.00 0.00 0.00 0.00 0.01 0.03 0.12 0.06 0.04 0.08 0.07 0.03 0.01 0.00 0.00 0.00 0.00
0.00 0.00 0.00 0.02 0.02 0.03 0.02 0.02 0.02 0.01 0.01 0.02 0.02 0.01 0.02 0.02 0.02 0.02 0.01 0.00 0.00 0.00 0.00 0.00 0.00 0.01 0.04 0.07 0.13 0.05 0.04 0.07 0.03 0.06 0.06 0.01 0.00 0.00
0.00 0.00 0.00 0.01 0.01 0.04 0.03 0.02 0.02 0.01 0.01 0.01 0.02 0.01 0.02 0.02 0.03 0.02 0.02 0.00 0.00 0.00 0.00 0.01 0.01 0.01 0.05 0.05 0.07 0.12 0.03 0.02 0.03 0.07 0.17 0.08 0.03 0.02
0.00 0.00 0.00 0.01 0.01 0.03 0.01 0.01 0.02 0.02 0.01 0.01 0.01 0.02 0.02 0.03 0.03 0.03 0.02 0.02 0.01 0.00 0.01 0.04 0.07 0.07 0.07 0.03 0.04 0.04 0.10 0.02 0.01 0.03 0.15 0.16 0.07 0.03
0.00 0.00 0.00 0.01 0.02 0.02 0.01 0.01 0.02 0.01 0.01 0.02 0.02 0.02 0.02 0.02 0.03 0.04 0.03 0.02 0.02 0.02 0.02 0.05 0.11 0.15 0.11 0.09 0.07 0.02 0.01 0.02 0.01 0.06 0.02 0.10 0.13 0.09
0.00 0.00 0.01 0.02 0.01 0.02 0.01 0.01 0.01 0.01 0.01 0.02 0.02 0.03 0.04 0.02 0.02 0.02 0.02 0.03 0.03 0.05 0.06 0.12 0.17 0.21 0.15 0.08 0.08 0.03 0.00 0.01 0.03 0.06 0.08 0.01 0.05 0.07
0.00 0.00 0.01 0.02 0.02 0.02 0.01 0.01 0.01 0.01 0.01 0.01 0.02 0.03 0.03 0.02 0.01 0.02 0.03 0.03 0.02 0.06 0.10 0.16 0.24 0.31 0.19 0.11 0.06 0.05 0.01 0.00 0.03 0.04 0.05 0.03 0.01 0.01
0.00 0.00 0.00 0.02 0.02 0.02 0.01 0.00 0.00 0.01 0.01 0.01 0.01 0.01 0.01 0.02 0.02 0.02 0.02 0.04 0.04 0.08 0.14 0.19 0.18 0.26 0.25 0.17 0.05 0.02 0.01 0.00 0.00 0.01 0.02 0.02 0.00 0.00
0.00 0.00 0.00 0.02 0.02 0.02 0.01 0.03 0.04 0.03 0.02 0.01 0.01 0.01 0.01 0.02 0.02 0.02 0.03 0.05 0.05 0.09 0.13 0.21 0.24 0.19 0.24 0.19 0.07 0.00 0.01 0.00 0.00 0.00 0.00 0.01 0.00 0.00
0.00 0.00 0.01 0.01 0.01 0.01 0.02 0.04 0.03 0.02 0.03 0.02 0.02 0.02 0.02 0.03 0.03 0.04 0.04 0.05 0.07 0.11 0.12 0.20 0.26 0.25 0.23 0.19 0.08 0.01 0.00 0.00 0.00 0.00 0.00 0.00 0.00 0.00
0.01 0.01 0.01 0.01 0.01 0.01 0.03 0.03 0.02 0.03 0.04 0.03 0.04 0.04 0.05 0.05 0.04 0.04 0.03 0.02 0.04 0.08 0.06 0.14 0.17 0.20 0.17 0.21 0.10 0.03 0.00 0.00 0.00 0.00 0.00 0.00 0.00 0.00
0.01 0.01 0.02 0.02 0.01 0.01 0.02 0.02 0.02 0.04 0.04 0.05 0.06 0.07 0.05 0.04 0.03 0.03 0.02 0.02 0.03 0.05 0.03 0.05 0.06 0.08 0.08 0.11 0.09 0.02 0.00 0.00 0.00 0.00 0.00 0.00 0.00 0.00
0.01 0.00 0.00 0.00 0.00 0.00 0.00 0.01 0.01 0.02 0.02 0.05 0.04 0.05 0.05 0.03 0.03 0.02 0.01 0.01 0.01 0.02 0.02 0.01 0.01 0.01 0.02 0.01 0.02 0.00 0.00 0.00 0.00 0.00 0.00 0.00 0.00 0.00
0.00 0.00 0.00 0.00 0.00 0.01 0.01 0.00 0.00 0.01 0.02 0.03 0.03 0.02 0.02 0.02 0.02 0.01 0.01 0.00 0.00 0.00 0.01 0.00 0.00 0.00 0.00 0.00 0.00 0.00 0.00 0.00 0.00 0.00 0.00 0.00 0.00 0.00
0.00 0.00 0.00 0.01 0.01 0.01 0.01 0.01 0.01 0.01 0.01 0.01 0.01 0.01 0.01 0.00 0.00 0.00 0.00 0.00 0.00 0.00 0.00 0.00 0.00 0.00 0.00 0.00 0.00 0.00 0.00 0.00 0.00 0.00 0.00 0.00 0.00 0.00
0.00 0.00 0.01 0.01 0.01 0.01 0.00 0.01 0.01 0.00 0.00 0.01 0.01 0.01 0.01 0.00 0.01 0.00 0.00 0.00 0.00 0.00 0.00 0.00 0.00 0.00 0.00 0.00 0.01 0.00 0.00 0.00 0.00 0.00 0.00 0.00 0.00 0.00
0.00 0.00 0.00 0.01 0.01 0.00 0.00 0.00 0.01 0.01 0.00 0.00 0.01 0.01 0.01 0.00 0.00 0.00 0.00 0.00 0.00 0.00 0.00 0.00 0.00 0.00 0.00 0.00 0.00 0.00 0.00 0.00 0.00 0.00 0.00 0.00 0.00 0.00
0.00 0.00 0.00 0.00 0.00 0.00 0.00 0.00 0.00 0.00 0.00 0.00 0.00 0.01 0.01 0.00 0.00 0.00 0.00 0.00 0.00 0.00 0.00 0.00 0.00 0.00 0.00 0.00 0.00 0.00 0.00 0.00 0.00 0.00 0.00 0.00 0.00 0.00
0.00 0.00 0.00 0.00 0.00 0.00 0.00 0.00 0.00 0.00 0.00 0.00 0.00 0.00 0.00 0.00 0.00 0.00 0.00 0.00 0.00 0.00 0.00 0.00 0.00 0.00 0.00 0.00 0.00 0.00 0.00 0.00 0.00 0.00 0.00 0.00 0.00 0.00
MSLP
1024.02 1023.54 1023.12 1022.63 1022.05 1021.57 1020.95 1020.46 1019.35 1017.23 1015.67 1014.77 1014.29 1014.24 1014.03 1013.54 1012.85 1012.40 1011.65 1011.12 1011.46 1011.42 1011.19 1011.14 1010.55 1010.97 1010.74 1010.90 1011.08 1011.13 1011.12 1011.43 1012.25 1013.08 1013.84 1014.38 1015.05 1015.89
1023.74 1023.44 1023.00 1022.39 1021.77 1021.08 1020.45 1019.79 1019.07 1018.07 1016.50 1015.23 1014.61 1014.23 1013.84 1013.41 1012.85 1012.02 1011.51 1011.24 1010.89 1010.89 1010.91 1010.90 1010.79 1009.83 1010.02 1010.18 1009.86 1010.75 1011.14 1011.16 1011.61 1012.54 1013.42 1013.95 1014.58 1015.34
1023.52 1023.18 1022.64 1022.16 1021.43 1020.69 1019.92 1019.28 1018.64 1017.94 1016.83 1015.38 1014.63 1014.09 1013.60 1013.20 1012.72 1012.18 1011.53 1011.14 1010.29 1010.47 1010.47 1010.15 1009.54 1009.20 1009.03 1009.13 1009.04 1009.91 1010.00 1010.71 1011.18 1011.94 1012.92 1013.53 1014.15 1014.93
1023.30 1022.86 1022.34 1021.73 1021.10 1020.40 1019.69 1019.02 1018.40 1017.75 1017.06 1015.79 1014.68 1014.07 1013.52 1013.13 1012.68 1012.12 1011.78 1011.02 1010.48 1010.33 1009.97 1009.80 1009.20 1007.93 1007.13 1007.75 1007.98 1008.25 1009.34 1010.26 1010.88 1011.57 1012.48 1013.16 1013.73 1014.54
1023.11 1022.59 1022.08 1021.42 1020.84 1020.34 1019.57 1018.84 1018.13 1017.52 1016.84 1016.02 1014.93 1014.11 1013.65 1013.06 1012.46 1011.92 1011.64 1011.16 1010.41 1010.38 1009.99 1009.60 1009.21 1008.49 1006.93 1006.61 1007.04 1007.78 1008.76 1009.76 1010.64 1011.38 1012.13 1012.71 1013.35 1014.16
1022.89 1022.40 1021.88 1021.43 1020.96 1020.28 1019.41 1018.66 1017.99 1017.37 1016.61 1015.87 1014.90 1014.18 1013.64 1013.14 1012.52 1012.16 1011.63 1011.30 1010.73 1010.28 1010.20 1009.98 1009.27 1008.25 1007.03 1007.22 1006.81 1007.54 1008.91 1009.55 1010.20 1011.25 1011.96 1012.29 1013.01 1013.93
1022.67 1022.16 1021.81 1021.54 1021.03 1020.36 1019.50 1018.65 1017.92 1017.27 1016.58 1015.77 1014.91 1014.28 1013.78 1013.24 1012.75 1012.38 1011.90 1011.63 1011.44 1011.16 1010.67 1010.20 1009.72 1009.02 1008.67 1008.14 1007.83 1008.32 1008.90 1009.80 1010.40 1011.26 1011.52 1011.78 1012.45 1013.72
1022.50 1022.05 1021.83 1021.22 1020.61 1019.89 1019.22 1018.68 1018.20 1017.57 1016.80 1016.08 1015.32 1014.67 1014.16 1013.59 1012.99 1012.50 1011.97 1011.65 1011.51 1011.65 1011.33 1011.10 1010.78 1010.09 1009.51 1009.49 1009.36 1009.47 1008.95 1010.34 1010.77 1011.14 1011.47 1012.14 1012.43 1013.08
1022.54 1022.19 1021.85 1021.09 1020.46 1019.60 1018.76 1018.19 1017.66 1017.46 1017.16 1016.60 1015.64 1015.07 1014.53 1014.05 1013.34 1012.55 1012.15 1011.77 1012.13 1012.29 1011.83 1011.96 1011.66 1010.78 1010.47 1010.18 1009.79 1010.21 1008.74 1009.70 1010.34 1010.90 1011.16 1011.09 1012.29 1013.21
1022.63 1022.37 1022.09 1021.22 1020.70 1019.86 1018.72 1017.95 1017.37 1017.00 1016.76 1016.35 1015.79 1015.41 1015.03 1014.27 1013.45 1013.00 1012.58 1012.34 1012.42 1012.60 1012.47 1012.62 1012.30 1012.29 1012.27 1011.95 1011.88 1012.13 1010.42 1010.58 1010.68 1011.01 1011.67 1012.05 1012.59 1012.90
1022.80 1022.53 1022.47 1021.63 1021.16 1020.17 1018.95 1018.07 1017.28 1016.92 1016.58 1016.35 1015.93 1015.48 1014.91 1014.38 1013.70 1012.71 1012.46 1012.16 1012.43 1013.00 1013.32 1013.22 1013.31 1013.15 1012.58 1013.33 1013.60 1013.58 1011.38 1011.29 1011.65 1012.03 1011.78 1013.11 1014.13 1014.70
1023.16 1022.74 1022.66 1022.26 1021.50 1020.61 1019.53 1018.66 1017.85 1017.50 1016.86 1015.98 1015.46 1015.03 1014.71 1014.44 1014.07 1013.42 1012.74 1012.43 1012.83 1013.23 1013.85 1013.22 1013.78 1014.32 1014.57 1014.05 1013.82 1013.65 1012.62 1012.17 1012.40 1013.22 1013.65 1013.20 1014.06 1014.40
1023.86 1023.42 1023.02 1022.64 1021.78 1021.08 1020.30 1019.56 1018.95 1018.08 1017.15 1016.37 1015.78 1015.25 1014.87 1014.65 1014.43 1014.09 1013.72 1013.42 1013.37 1013.75 1014.24 1013.76 1014.28 1014.47 1014.34 1015.24 1014.36 1013.16 1012.45 1012.80 1013.17 1013.21 1014.08 1014.14 1015.16 1015.07
1024.76 1024.40 1023.83 1023.09 1022.25 1021.55 1020.73 1020.03 1019.28 1018.35 1017.58 1016.96 1016.46 1015.97 1015.44 1015.17 1015.05 1014.79 1014.45 1014.36 1014.21 1013.84 1013.98 1013.83 1014.33 1014.63 1015.00 1014.78 1014.40 1013.47 1013.24 1013.59 1013.81 1013.67 1014.07 1014.86 1014.93 1015.22
1025.58 1025.09 1024.27 1023.47 1022.67 1021.98 1021.40 1020.68 1019.85 1019.10 1018.39 1017.68 1017.16 1016.80 1016.47 1016.07 1015.54 1015.23 1015.09 1014.82 1014.31 1014.25 1014.26 1014.24 1014.74 1014.94 1014.93 1015.20 1014.83 1014.75 1014.86 1015.08 1014.94 1015.12 1015.94 1016.00 1016.78 1016.84
1025.65 1025.05 1024.56 1023.89 1023.26 1022.76 1022.02 1021.37 1020.88 1020.28 1019.61 1018.93 1018.24 1017.72 1017.28 1016.71 1016.20 1015.78 1015.39 1015.28 1015.11 1015.55 1015.17 1015.45 1015.61 1015.40 1015.40 1015.67 1015.48 1016.00 1015.35 1014.82 1015.63 1016.06 1016.43 1017.01 1016.51 1017.35
1026.18 1025.42 1024.81 1024.12 1023.66 1023.32 1022.84 1022.29 1021.74 1021.13 1020.35 1019.74 1019.17 1018.51 1018.03 1017.70 1017.28 1016.88 1016.34 1015.98 1016.02 1016.03 1016.01 1016.34 1015.72 1016.00 1016.57 1016.16 1016.32 1016.30 1015.59 1015.55 1015.80 1016.41 1016.48 1016.32 1017.57 1018.57
1026.83 1026.23 1025.79 1025.38 1024.88 1024.45 1023.99 1023.35 1022.84 1022.18 1021.38 1020.62 1020.00 1019.41 1018.91 1018.55 1018.19 1017.71 1017.12 1016.89 1016.94 1017.01 1016.95 1016.62 1016.37 1016.92 1017.55 1017.80 1018.47 1017.38 1016.56 1016.44 1016.73 1016.51 1016.16 1017.20 1018.58 1019.23
1027.78 1027.33 1026.98 1026.54 1026.11 1025.65 1025.21 1024.61 1024.00 1023.51 1022.67 1021.65 1020.99 1020.52 1019.88 1019.35 1018.87 1018.41 1017.98 1017.68 1017.43 1017.52 1017.66 1017.41 1016.83 1017.12 1017.29 1017.92 1018.97 1019.29 1018.33 1018.16 1018.08 1017.63 1018.31 1018.73 1019.23 1020.50
1028.89 1028.58 1028.15 1027.71 1027.27 1026.75 1026.25 1025.68 1025.03 1024.48 1023.79 1022.96 1022.16 1021.66 1021.13 1020.48 1019.97 1019.61 1019.08 1018.59 1018.41 1018.41 1018.49 1018.67 1018.93 1018.79 1018.71 1019.25 1019.67 1020.73 1020.17 1019.26 1018.57 1018.90 1019.75 1020.35 1021.25 1021.77
1029.83 1029.52 1029.22 1028.85 1028.33 1027.73 1027.11 1026.44 1025.79 1025.12 1024.53 1024.07 1023.50 1022.78 1022.29 1021.66 1021.23 1020.80 1020.40 1019.85 1019.42 1019.46 1019.41 1019.42 1019.56 1019.61 1019.51 1019.68 1019.97 1021.04 1021.80 1021.64 1021.34 1021.09 1021.11 1021.61 1022.15 1022.05
1030.96 1030.40 1030.03 1029.66 1029.18 1028.58 1027.83 1027.16 1026.55 1026.05 1025.44 1024.71 1024.29 1023.83 1022.98 1022.74 1022.22 1021.81 1021.33 1021.04 1020.88 1020.85 1020.92 1020.87 1020.76 1020.40 1020.35 1020.64 1021.26 1022.00 1022.16 1022.44 1022.70 1023.08 1023.50 1023.49 1023.03 1023.36
1032.13 1031.50 1030.94 1030.51 1030.01 1029.39 1028.74 1028.03 1027.42 1026.86 1026.42 1025.73 1025.03 1024.44 1024.06 1023.57 1022.87 1022.68 1022.48 1022.28 1021.73 1021.64 1021.54 1021.51 1021.43 1021.62 1022.10 1022.14 1021.60 1022.14 1023.07 1023.24 1023.49 1023.97 1024.60 1024.80 1024.86 1024.96
Thickness
5241 5238 5235 5233 5233 5234 5239 5250 5268 5291 5315 5333 5348 5358 5369 5382 5398 5414 5433 5451 5459 5473 5489 5506 5527 5537 5557 5569 5580 5590 5604 5614 5619 5624 5628 5636 5639 5641
5233 5227 5224 5223 5223 5227 5231 5238 5253 5271 5291 5316 5332 5345 5358 5371 5385 5403 5420 5436 5451 5464 5480 5494 5513 5538 5549 5560 5581 5587 5596 5610 5618 5620 5623 5631 5636 5638
5225 5220 5217 5216 5218 5221 5226 5232 5241 5258 5276 5302 5319 5335 5349 5362 5376 5390 5407 5422 5440 5454 5470 5491 5513 5535 5550 5562 5578 5585 5599 5606 5614 5618 5619 5626 5631 5634
5220 5217 5215 5214 5215 5217 5221 5226 5234 5248 5263 5285 5308 5324 5339 5351 5366 5380 5394 5411 5425 5441 5462 5480 5503 5535 5557 5567 5580 5592 5596 5602 5608 5613 5615 5622 5628 5630
5218 5216 5214 5213 5213 5214 5218 5224 5232 5243 5257 5276 5296 5315 5329 5342 5357 5373 5386 5401 5419 5431 5449 5470 5493 5519 5551 5569 5581 5589 5593 5596 5602 5607 5613 5618 5624 5627
5218 5216 5214 5212 5211 5213 5218 5224 5232 5242 5256 5272 5290 5307 5320 5333 5348 5363 5380 5392 5407 5422 5438 5457 5482 5510 5539 5554 5573 5582 5582 5590 5597 5601 5607 5615 5620 5622
5219 5217 5214 5211 5211 5213 5218 5225 5233 5243 5256 5270 5286 5301 5312 5325 5340 5355 5370 5383 5392 5405 5423 5443 5468 5493 5516 5539 5556 5568 5577 5582 5587 5593 5602 5612 5616 5615
5221 5219 5214 5215 5216 5218 5222 5227 5232 5242 5254 5267 5280 5293 5304 5318 5334 5348 5364 5376 5390 5394 5410 5428 5449 5475 5500 5519 5536 5551 5571 5571 5578 5586 5594 5599 5606 5611
5222 5219 5216 5218 5219 5224 5230 5234 5240 5245 5252 5262 5277 5288 5299 5311 5327 5345 5358 5371 5377 5384 5400 5414 5434 5461 5483 5505 5525 5537 5565 5568 5574 5580 5589 5599 5599 5601
5224 5220 5218 5221 5221 5227 5236 5243 5248 5254 5259 5267 5276 5286 5295 5308 5323 5336 5350 5359 5368 5376 5388 5404 5422 5442 5463 5482 5501 5511 5540 5553 5564 5571 5577 5583 5588 5595
5226 5222 5219 5222 5222 5228 5238 5246 5254 5258 5263 5268 5276 5285 5294 5305 5318 5335 5346 5361 5368 5373 5379 5397 5410 5431 5454 5465 5478 5493 5525 5539 5548 5555 5567 5566 5565 5570
5227 5225 5222 5222 5224 5230 5237 5244 5252 5256 5263 5273 5280 5288 5295 5303 5314 5327 5342 5358 5364 5372 5374 5396 5408 5418 5435 5452 5469 5484 5506 5524 5534 5538 5544 5558 5558 5562
5227 5226 5225 5224 5226 5229 5234 5239 5244 5251 5262 5272 5279 5287 5295 5302 5310 5321 5334 5347 5359 5367 5374 5393 5403 5418 5432 5441 5459 5482 5500 5511 5520 5532 5536 5545 5544 5549
5225 5224 5224 5226 5228 5230 5234 5239 5245 5254 5262 5270 5277 5284 5292 5300 5307 5316 5329 5341 5352 5365 5378 5393 5401 5415 5425 5440 5453 5469 5487 5497 5510 5523 5530 5532 5538 5543
5224 5224 5226 5228 5230 5233 5234 5238 5245 5251 5259 5267 5275 5281 5287 5296 5306 5315 5324 5336 5350 5359 5372 5383 5393 5404 5422 5433 5444 5457 5470 5480 5494 5506 5509 5518 5517 5524
5228 5229 5229 5230 5232 5233 5236 5238 5241 5247 5253 5261 5269 5276 5283 5293 5304 5314 5327 5338 5347 5349 5365 5373 5383 5399 5413 5425 5435 5446 5457 5475 5481 5490 5498 5501 5516 5517
5230 5232 5233 5236 5237 5236 5237 5240 5242 5245 5251 5258 5264 5274 5282 5289 5299 5311 5325 5335 5341 5350 5359 5366 5380 5391 5400 5416 5427 5438 5450 5462 5473 5481 5490 5500 5500 5498
5230 5232 5233 5234 5235 5235 5236 5239 5241 5245 5251 5257 5265 5273 5281 5289 5297 5310 5322 5331 5336 5341 5352 5365 5375 5381 5388 5395 5403 5425 5438 5449 5459 5473 5488 5487 5483 5485
5230 5231 5231 5232 5233 5233 5234 5236 5240 5243 5249 5258 5265 5272 5282 5292 5301 5309 5322 5329 5338 5345 5351 5360 5375 5382 5389 5393 5395 5404 5420 5433 5442 5455 5460 5464 5469 5465
5231 5230 5231 5231 5232 5233 5235 5237 5240 5243 5248 5256 5265 5272 5280 5290 5300 5308 5318 5330 5338 5344 5350 5354 5357 5367 5377 5382 5389 5391 5403 5419 5435 5441 5442 5445 5443 5446
5233 5232 5231 5231 5232 5235 5237 5240 5243 5247 5251 5255 5261 5270 5278 5288 5296 5305 5315 5325 5335 5340 5346 5353 5358 5365 5373 5379 5386 5386 5388 5395 5405 5415 5422 5426 5429 5436
5233 5234 5234 5233 5234 5236 5240 5243 5246 5248 5252 5259 5263 5268 5279 5284 5293 5301 5310 5319 5325 5332 5338 5344 5349 5359 5368 5373 5376 5377 5383 5386 5391 5394 5396 5401 5414 5416
5232 5234 5235 5235 5237 5239 5241 5245 5249 5252 5255 5261 5267 5273 5277 5283 5294 5300 5305 5313 5324 5330 5337 5342 5348 5352 5353 5360 5373 5376 5373 5377 5379 5380 5380 5383 5387 5390